Perryton, TX

8:24 PM CST on February 18, 2018 (GMT -0600)
Perryton Ochiltree County

Weather History for KPYX - August, 2013

Change the Weather History Date:

Thursday, August 1, 2013

  Actual Average Record
Temperature  
Mean Temperature 80 °F -  
Max Temperature 97 °F 93 °F 107 °F (2012)
Min Temperature 64 °F 63 °F 51 °F (1971)
Cooling Degree Days 15    
Growing Degree Days 30 (Base 50)    
Moisture  
Dew Point 63 °F    
Average Humidity 58    
Maximum Humidity 95    
Minimum Humidity 27    
Precipitation  
Precipitation 0.01 in - - ()
Sea Level Pressure  
Sea Level Pressure 30.10 in    
Wind  
Wind Speed 8 mph (South)    
Max Wind Speed 25 mph    
Max Gust Speed 31 mph    
Visibility 10 miles    
Events      
Averages and records for this station are not official NWS values.
T = Trace of Precipitation, MM = Missing Value Source: NWS Daily Summary

Daily Weather History Graph

Daily Weather History Graph

Search for Another Location

Airport or City:

Trip Planner

Search our weather history database for the weather conditions in past years. The results will help you decide how hot, cold, wet, or windy it might be!

Date:

Astronomy

Aug. 01, 2013 Rise Set
Actual Time 6:49 AM CDT 8:48 PM CDT
Civil Twilight 6:21 AM CDT 9:16 PM CDT
Nautical Twilight 5:46 AM CDT 9:51 PM CDT
Astronomical Twilight 5:09 AM CDT 10:28 PM CDT
Moon 2:28 AM CDT (8/1) 4:57 PM CDT (8/1)
Length of Visible Light 14h 55m
Length of Day
13h 58m
Waning Crescent, 23% of the Moon is Illuminated
Aug 1
Waning Crescent
Aug 6
New
Aug 14
First Quarter
Aug 20
Full
Aug 28
Last Quarter

Hourly Weather History & Observations

Time (CDT) Temp. Heat Index Dew Point Humidity Pressure Visibility Wind Dir Wind Speed Gust Speed Precip Events Conditions
12:15 AM 72.3 °F - 68.0 °F 86% 30.17 in 10.0 mi Calm Calm - N/A   Clear
12:35 AM 70.9 °F - 67.3 °F 88% 30.18 in 10.0 mi WSW 9.2 mph - N/A   Clear
12:55 AM 72.5 °F - 66.2 °F 81% 30.16 in 10.0 mi SSW 9.2 mph - N/A   Clear
1:15 AM 73.4 °F - 66.2 °F 78% 30.17 in 10.0 mi WSW 6.9 mph - N/A   Clear
1:35 AM 72.5 °F - 65.7 °F 79% 30.17 in 10.0 mi Calm Calm - N/A   Clear
1:55 AM 71.2 °F - 66.0 °F 84% 30.17 in 10.0 mi East 3.5 mph - N/A   Clear
2:15 AM 69.8 °F - 66.2 °F 88% 30.17 in 10.0 mi ESE 3.5 mph - N/A   Clear
2:35 AM 69.1 °F - 66.2 °F 91% 30.18 in 10.0 mi East 3.5 mph - N/A   Clear
2:55 AM 68.9 °F - 66.2 °F 91% 30.17 in 10.0 mi Calm Calm - N/A   Clear
3:15 AM 69.8 °F - 66.0 °F 88% 30.17 in 10.0 mi SE 5.8 mph - N/A   Clear
3:35 AM 70.2 °F - 66.2 °F 87% 30.16 in 10.0 mi ESE 8.1 mph - N/A   Clear
3:55 AM 70.2 °F - 66.4 °F 88% 30.16 in 10.0 mi SE 6.9 mph - N/A   Clear
4:15 AM 70.0 °F - 66.6 °F 89% 30.16 in 10.0 mi SE 4.6 mph - N/A   Clear
4:35 AM 69.4 °F - 66.4 °F 90% 30.16 in 10.0 mi ESE 5.8 mph - N/A   Clear
4:55 AM 69.3 °F - 66.2 °F 90% 30.17 in 10.0 mi SE 3.5 mph - N/A   Clear
5:15 AM 68.9 °F - 66.2 °F 91% 30.17 in 10.0 mi SE 3.5 mph - N/A   Clear
5:35 AM 68.2 °F - 65.5 °F 91% 30.18 in 10.0 mi Calm Calm - N/A   Clear
5:55 AM 67.1 °F - 64.8 °F 92% 30.18 in 10.0 mi Calm Calm - N/A   Clear
6:15 AM 66.6 °F - 64.0 °F 92% 30.19 in 7.0 mi Calm Calm - N/A   Clear
6:35 AM 64.9 °F - 63.3 °F 94% 30.18 in 5.0 mi South 3.5 mph - N/A   Clear
6:55 AM 66.6 °F - 64.9 °F 95% 30.19 in 5.0 mi South 4.6 mph - N/A   Clear
7:15 AM 66.0 °F - 64.2 °F 94% 30.19 in 5.0 mi Calm Calm - N/A   Clear
7:35 AM 67.6 °F - 65.8 °F 94% 30.19 in 5.0 mi SSE 4.6 mph - N/A   Clear
7:55 AM 69.1 °F - 67.1 °F 93% 30.19 in 5.0 mi SE 3.5 mph - N/A   Clear
8:15 AM 72.7 °F - 67.5 °F 84% 30.20 in 10.0 mi SSE 3.5 mph - N/A   Clear
8:35 AM 74.8 °F - 67.1 °F 77% 30.19 in 10.0 mi South 8.1 mph - N/A   Clear
8:55 AM 76.8 °F - 67.1 °F 72% 30.19 in 10.0 mi South 10.4 mph - N/A   Clear
9:15 AM 78.1 °F - 66.4 °F 67% 30.19 in 10.0 mi South 12.7 mph - N/A   Clear
9:35 AM 79.0 °F - 66.6 °F 66% 30.18 in 10.0 mi South 11.5 mph - N/A   Clear
9:55 AM 80.2 °F 82.5 °F 66.4 °F 63% 30.18 in 10.0 mi South 10.4 mph - N/A   Clear
10:15 AM 81.3 °F 83.5 °F 66.0 °F 60% 30.18 in 10.0 mi South 10.4 mph - N/A   Clear
10:35 AM 82.8 °F 84.9 °F 66.0 °F 57% 30.17 in 10.0 mi South 8.1 mph - N/A   Clear
10:55 AM 84.4 °F 86.6 °F 65.8 °F 54% 30.17 in 10.0 mi South 8.1 mph - N/A   Clear
11:15 AM 85.3 °F 87.4 °F 65.7 °F 52% 30.16 in 10.0 mi South 13.8 mph 18.4 mph N/A   Clear
11:35 AM 87.1 °F 88.9 °F 65.3 °F 48% 30.15 in 10.0 mi South 10.4 mph - N/A   Clear
11:55 AM 88.3 °F 90.2 °F 65.1 °F 46% 30.15 in 10.0 mi South 12.7 mph 18.4 mph N/A   Clear
12:15 PM 89.2 °F 90.2 °F 63.3 °F 42% 30.14 in 10.0 mi SSW 15.0 mph 20.7 mph N/A   Clear
12:35 PM 90.7 °F 91.7 °F 63.0 °F 40% 30.14 in 10.0 mi South 12.7 mph 17.3 mph N/A   Clear
12:55 PM 91.0 °F 91.2 °F 61.5 °F 37% 30.12 in 10.0 mi South 13.8 mph 19.6 mph N/A   Clear
1:15 PM 91.6 °F 91.6 °F 61.3 °F 36% 30.11 in 10.0 mi SSE 13.8 mph 19.6 mph N/A   Clear
1:35 PM 92.7 °F 92.9 °F 61.5 °F 35% 30.11 in 10.0 mi South 13.8 mph 19.6 mph N/A   Scattered Clouds
1:55 PM 92.8 °F 93.1 °F 61.5 °F 35% 30.10 in 10.0 mi South 12.7 mph 23.0 mph N/A   Scattered Clouds
2:15 PM 92.7 °F 93.2 °F 62.4 °F 36% 30.09 in 10.0 mi SSE 11.5 mph 21.9 mph N/A   Scattered Clouds
2:35 PM 93.0 °F 93.4 °F 61.5 °F 35% 30.09 in 10.0 mi SSW 15.0 mph 21.9 mph N/A   Scattered Clouds
2:55 PM 94.8 °F 95.3 °F 61.2 °F 33% 30.08 in 10.0 mi South 15.0 mph 23.0 mph N/A   Mostly Cloudy
3:15 PM 95.2 °F 95.5 °F 60.8 °F 32% 30.06 in 10.0 mi South 16.1 mph 25.3 mph N/A   Mostly Cloudy
3:35 PM 95.5 °F 95.6 °F 60.8 °F 31% 30.05 in 10.0 mi South 17.3 mph 25.3 mph N/A   Mostly Cloudy
3:55 PM 95.2 °F 95.1 °F 60.1 °F 31% 30.05 in 10.0 mi South 19.6 mph 26.5 mph N/A   Scattered Clouds
4:15 PM 94.5 °F 94.0 °F 59.9 °F 31% 30.04 in 10.0 mi South 16.1 mph 26.5 mph N/A   Scattered Clouds
4:35 PM 96.8 °F 96.7 °F 59.5 °F 29% 30.03 in 10.0 mi South 18.4 mph 28.8 mph N/A   Mostly Cloudy
4:55 PM 94.8 °F 93.8 °F 58.1 °F 29% 30.02 in 10.0 mi South 18.4 mph 25.3 mph N/A   Scattered Clouds
5:15 PM 96.4 °F 95.3 °F 57.6 °F 27% 30.01 in 10.0 mi South 20.7 mph 29.9 mph N/A   Scattered Clouds
5:35 PM 96.4 °F 95.7 °F 57.9 °F 28% 30.00 in 10.0 mi SSE 20.7 mph 27.6 mph N/A   Scattered Clouds
5:55 PM 95.9 °F 94.6 °F 57.4 °F 27% 30.00 in 10.0 mi South 19.6 mph 31.1 mph 0.01 in   Scattered Clouds
6:15 PM 96.1 °F 94.8 °F 57.0 °F 27% 30.00 in 10.0 mi South 25.3 mph 31.1 mph N/A   Scattered Clouds
6:35 PM 95.0 °F 93.4 °F 55.8 °F 27% 30.00 in 10.0 mi South 25.3 mph 29.9 mph N/A   Scattered Clouds
6:55 PM 94.1 °F 92.5 °F 56.3 °F 28% 29.99 in 10.0 mi South 23.0 mph 31.1 mph N/A   Clear
7:15 PM 93.2 °F 91.9 °F 57.2 °F 30% 29.99 in 10.0 mi South 20.7 mph - N/A   Clear
7:35 PM 91.2 °F 89.6 °F 56.3 °F 31% 29.99 in 10.0 mi South 20.7 mph 27.6 mph N/A   Clear
7:55 PM 90.3 °F 88.5 °F 55.9 °F 31% 29.99 in 10.0 mi South 23.0 mph 26.5 mph N/A   Clear
8:15 PM 89.1 °F 87.7 °F 57.2 °F 34% 29.98 in 10.0 mi South 23.0 mph 26.5 mph N/A   Clear
8:35 PM 87.8 °F 86.7 °F 57.7 °F 36% 29.98 in 10.0 mi South 18.4 mph 23.0 mph N/A   Clear
8:55 PM 87.3 °F 85.7 °F 55.8 °F 34% 29.98 in 10.0 mi South 20.7 mph 25.3 mph N/A   Clear
9:15 PM 86.4 °F 85.1 °F 56.5 °F 36% 29.98 in 10.0 mi South 17.3 mph 23.0 mph N/A   Clear
9:35 PM 85.1 °F 84.4 °F 58.1 °F 40% 29.98 in 10.0 mi South 17.3 mph - N/A   Clear
9:55 PM 84.4 °F 84.0 °F 59.0 °F 42% 29.98 in 10.0 mi South 15.0 mph - N/A   Clear
10:15 PM 83.7 °F 83.6 °F 59.4 °F 44% 30.02 in 10.0 mi South 11.5 mph - N/A   Clear
10:35 PM 83.5 °F 83.4 °F 59.5 °F 44% 30.02 in 10.0 mi South 11.5 mph - N/A   Clear
10:55 PM 82.6 °F 82.6 °F 59.4 °F 45% 30.02 in 10.0 mi South 10.4 mph - N/A   Clear
11:15 PM 82.2 °F 82.6 °F 59.9 °F 47% 30.02 in 10.0 mi South 11.5 mph - N/A   Clear
11:35 PM 81.9 °F 82.3 °F 60.6 °F 48% 30.03 in 10.0 mi South 11.5 mph - N/A   Clear
11:55 PM 81.7 °F 82.3 °F 61.0 °F 49% 30.04 in 10.0 mi SSW 10.4 mph - N/A   Clear